Date String (YYYY-MM-DD hh:mm:ss) UTC,Instrument flags,Ambient pressure (hPa),Sample flow (lpm),Bypass flow (lpm),Sample temperature (°C),Ambient temperature (°C),ASC tube jacket temperature (°C),LED temperature (°C),Box temperature (°C),Sample RH (%),Span deviation,Mass concentration (μg/m³),Mass concentration (μg/m³),Mass concentration (μg/m³)
DateTimeUTC,F1_M11,P_M11,Q1_M11,Q2_M11,T1_M11,T2_M11,T3_M11,T4_M11,T5_M11,U1_M11,ZSPAN_M11,X0_M11,X2_M11,X1_M11
2022-06-23 17:00:00,,0826.6,4.99,0.00,29.1,27.9,00.0,37.8,31.1,16.6,0000.0,0011.95,0004.98,0003.98
2022-06-23 17:01:00,,0826.7,4.99,0.00,29.1,28.0,00.0,37.9,31.1,17.4,0000.0,0012.43,0004.96,0003.97
2022-06-23 17:02:00,,0826.7,5.00,0.00,29.2,28.1,00.0,37.9,31.1,16.7,0000.0,0012.64,0004.91,0003.95
2022-06-23 17:03:00,,0826.6,5.01,0.00,29.1,27.5,00.0,37.8,31.0,16.0,0000.0,0012.16,0004.90,0003.95
2022-06-23 17:04:00,,0826.6,5.00,0.00,29.1,27.1,00.0,37.8,30.8,16.1,0000.0,0012.04,0004.91,0003.95
2022-06-23 17:05:00,,0826.5,5.00,0.00,29.0,27.1,00.0,37.8,30.8,16.7,0000.0,0012.68,0004.91,0003.95
2022-06-23 17:06:00,,0826.5,5.00,0.00,29.0,27.2,00.0,37.8,30.8,16.8,0000.0,0011.89,0004.90,0003.94
2022-06-23 17:07:00,,0826.5,5.00,0.00,29.0,27.3,00.0,37.8,30.9,17.1,0000.0,0012.06,0004.90,0003.91
2022-06-23 17:08:00,,0826.5,5.01,0.00,29.0,27.5,00.0,37.8,30.9,16.8,0000.0,0012.53,0004.92,0003.91
2022-06-23 17:09:00,,0826.5,5.01,0.00,29.0,27.7,00.0,37.8,31.0,16.5,0000.0,0012.54,0004.88,0003.90
2022-06-23 17:10:00,,0826.5,5.00,0.00,29.1,27.8,00.0,37.8,31.0,16.5,0000.0,0012.21,0004.89,0003.88
2022-06-23 17:11:00,,0826.5,4.99,0.00,29.1,28.0,00.0,37.8,31.1,15.9,0000.0,0011.86,0004.87,0003.86
2022-06-23 17:12:00,,0826.5,5.00,0.00,29.1,27.8,00.0,37.8,31.0,15.9,0000.0,0011.68,0004.87,0003.86
2022-06-23 17:13:00,,0826.5,4.99,0.00,29.1,27.2,00.0,37.8,30.9,15.1,0000.0,0011.65,0004.87,0003.86
2022-06-23 17:14:00,,0826.5,5.00,0.00,29.0,27.0,00.0,37.7,30.8,14.8,0000.0,0011.33,0004.86,0003.85
2022-06-23 17:15:00,,0826.5,5.00,0.00,29.0,27.0,00.0,37.7,30.8,14.3,0000.0,0011.71,0004.85,0003.82
2022-06-23 17:16:00,,0826.5,5.00,0.00,29.0,27.1,00.0,37.7,30.8,13.8,0000.0,0011.39,0004.84,0003.80
2022-06-23 17:17:00,,0826.5,5.00,0.00,29.0,27.3,00.0,37.7,30.8,13.9,0000.0,0010.82,0004.80,0003.78
2022-06-23 17:18:00,,0826.5,5.01,0.00,29.0,27.5,00.0,37.7,30.9,14.9,0000.0,0011.05,0004.77,0003.78
2022-06-23 17:19:00,,0826.5,5.00,0.00,29.0,27.6,00.0,37.7,30.9,14.9,0000.0,0010.70,0004.75,0003.79
2022-06-23 17:20:00,,0826.5,4.99,0.00,29.0,27.8,00.0,37.8,31.0,14.4,0000.0,0010.71,0004.79,0003.79
2022-06-23 17:21:00,,0826.5,5.00,0.00,29.0,27.9,00.0,37.8,31.0,14.7,0000.0,0010.73,0004.81,0003.80
2022-06-23 17:22:00,,0826.5,5.00,0.00,29.0,27.5,00.0,37.7,30.9,14.4,0000.0,0010.67,0004.80,0003.81
2022-06-23 17:23:00,,0826.5,5.00,0.00,29.0,27.0,00.0,37.7,30.8,14.9,0000.0,0010.49,0004.75,0003.80
2022-06-23 17:24:00,,0826.5,5.01,0.00,28.9,26.9,00.0,37.7,30.7,15.4,0000.0,0010.11,0004.72,0003.80
2022-06-23 17:25:00,,0826.5,5.00,0.00,28.9,27.0,00.0,37.7,30.7,15.7,0000.0,0010.90,0004.71,0003.81
2022-06-23 17:26:00,,0826.5,5.00,0.00,28.9,27.1,00.0,37.7,30.7,15.2,0000.0,0010.82,0004.70,0003.83
2022-06-23 17:27:00,,0826.5,4.99,0.00,28.9,27.3,00.0,37.7,30.8,15.3,0000.0,0011.43,0004.69,0003.84
2022-06-23 17:28:00,,0826.5,4.99,0.00,28.9,27.5,00.0,37.7,30.8,15.3,0000.0,0011.61,0004.70,0003.86
2022-06-23 17:29:00,,0826.5,5.00,0.00,28.9,27.7,00.0,37.7,30.9,15.0,0000.0,0011.63,0004.72,0003.86
2022-06-23 17:30:00,,0826.5,5.01,0.00,29.0,27.8,00.0,37.7,31.0,14.5,0000.0,0012.62,0004.71,0003.85
2022-06-23 17:31:00,,0826.5,4.99,0.00,29.0,28.0,00.0,37.7,31.0,14.7,0000.0,0012.64,0004.72,0003.86
2022-06-23 17:32:00,,0826.5,5.00,0.00,29.0,27.6,00.0,37.7,30.9,14.5,0000.0,0013.23,0004.67,0003.85
2022-06-23 17:33:00,,0826.5,5.01,0.00,28.9,27.0,00.0,37.6,30.8,13.9,0000.0,0014.02,0004.64,0003.84
2022-06-23 17:34:00,,0826.4,5.01,0.00,28.9,27.0,00.0,37.6,30.7,13.6,0000.0,0014.33,0004.66,0003.83
2022-06-23 17:35:00,,0826.4,5.01,0.00,28.9,27.0,00.0,37.6,30.7,13.8,0000.0,0014.38,0004.68,0003.83
2022-06-23 17:36:00,,0826.4,5.00,0.00,28.9,27.2,00.0,37.6,30.7,14.1,0000.0,0013.64,0004.68,0003.82
2022-06-23 17:37:00,,0826.4,5.00,0.00,28.9,27.3,00.0,37.6,30.8,14.6,0000.0,0013.49,0004.66,0003.81
2022-06-23 17:38:00,,0826.4,5.00,0.00,28.9,27.5,00.0,37.6,30.8,15.0,0000.0,0013.45,0004.68,0003.81
2022-06-23 17:39:00,,0826.4,5.01,0.00,28.9,27.7,00.0,37.7,30.9,14.8,0000.0,0014.52,0004.72,0003.82
2022-06-23 17:40:00,,0826.3,5.00,0.00,28.9,27.8,00.0,37.7,30.9,14.6,0000.0,0014.95,0004.75,0003.83
2022-06-23 17:41:00,,0826.3,5.00,0.00,29.0,28.0,00.0,37.7,31.0,13.9,0000.0,0014.29,0004.74,0003.83
2022-06-23 17:42:00,,0826.3,5.00,0.00,29.0,27.7,00.0,37.7,30.9,12.7,0000.0,0014.48,0004.72,0003.83
2022-06-23 17:43:00,,0826.3,5.00,0.00,28.9,27.0,00.0,37.6,30.8,12.4,0000.0,0014.29,0004.71,0003.81
2022-06-23 17:44:00,,0826.3,5.01,0.00,28.9,26.9,00.0,37.6,30.7,12.9,0000.0,0014.06,0004.74,0003.80
2022-06-23 17:45:00,,0826.2,5.00,0.00,28.9,27.0,00.0,37.6,30.7,13.4,0000.0,0014.47,0004.72,0003.80
2022-06-23 17:46:00,,0826.2,5.00,0.00,28.9,27.1,00.0,37.6,30.7,13.6,0000.0,0014.73,0004.70,0003.80
2022-06-23 17:47:00,,0826.2,4.99,0.00,28.9,27.3,00.0,37.6,30.8,13.1,0000.0,0015.15,0004.69,0003.80
2022-06-23 17:48:00,,0826.2,4.99,0.00,28.9,27.4,00.0,37.6,30.8,12.8,0000.0,0015.08,0004.71,0003.80
2022-06-23 17:49:00,,0826.2,4.99,0.00,28.9,27.6,00.0,37.6,30.9,12.3,0000.0,0014.31,0004.68,0003.78
2022-06-23 17:50:00,,0826.2,5.01,0.00,28.9,27.8,00.0,37.7,30.9,13.4,0000.0,0013.95,0004.69,0003.77
2022-06-23 17:51:00,,0826.3,5.01,0.00,29.0,28.0,00.0,37.7,31.0,13.5,0000.0,0014.24,0004.69,0003.76
2022-06-23 17:52:00,,0826.2,5.00,0.00,29.0,27.8,00.0,37.7,31.0,13.1,0000.0,0014.21,0004.73,0003.77
2022-06-23 17:53:00,,0826.2,5.00,0.00,28.9,27.2,00.0,37.6,30.8,13.4,0000.0,0014.13,0004.76,0003.76
2022-06-23 17:54:00,,0826.2,5.00,0.00,28.9,27.0,00.0,37.6,30.7,13.1,0000.0,0014.27,0004.79,0003.77
2022-06-23 17:55:00,,0826.2,5.00,0.00,28.9,27.0,00.0,37.6,30.7,13.2,0000.0,0013.40,0004.78,0003.78
2022-06-23 17:56:00,,0826.2,4.98,0.00,28.9,27.1,00.0,37.6,30.7,12.4,0000.0,0012.88,0004.81,0003.79
2022-06-23 17:57:00,,0826.2,4.99,0.00,28.9,27.3,00.0,37.6,30.8,12.9,0000.0,0012.69,0004.82,0003.78
2022-06-23 17:58:00,,0826.2,5.00,0.00,28.9,27.5,00.0,37.6,30.8,12.9,0000.0,0013.52,0004.87,0003.78
2022-06-23 17:59:00,,0826.2,4.99,0.00,28.9,27.7,00.0,37.6,30.9,12.8,0000.0,0014.31,0004.85,0003.78
